HS2GJW-1 Weather Reports


Display with metric or nautical units.
time (UTC)temp
F
wind
direction
speed
MPH
gust
MPH
rain 1hr
in
rain 24hr
in
rain mn
in
humidity
%
barometer
mb
20260508075235 94 0 0.0 0.0 0.00 0.00 0.00 76 1006.0
20260508074209 95 0 0.0 0.0 0.00 0.00 0.00 77 1006.0
20260508073145 96 0 0.0 0.0 0.00 0.00 0.00 74 1006.0
20260508072121 96 0 0.0 0.0 0.00 0.00 0.00 74 1006.0
20260508071057 96 0 0.0 0.0 0.00 0.00 0.00 76 1006.0
20260508070032 96 0 0.0 0.0 0.00 0.00 0.00 75 1007.0
20260508065008 96 0 0.0 0.0 0.00 0.00 0.00 73 1007.0
20260508063945 96 0 0.0 0.0 0.00 0.00 0.00 75 1007.0
20260508062920 95 0 0.0 0.0 0.00 0.00 0.00 75 1007.0
20260508061856 95 0 0.0 0.0 0.00 0.00 0.00 76 1007.0
20260508060832 95 0 0.0 0.0 0.00 0.00 0.00 79 1008.0
20260508055808 94 0 0.0 0.0 0.00 0.00 0.00 83 1008.0
20260507234235 83 0 0.0 0.0 0.00 0.00 0.00 99 1009.0
20260507233207 83 0 0.0 0.0 0.00 0.00 0.00 99 1009.0
20260507232140 81 0 0.0 0.0 0.00 0.00 0.00 99 1009.0
20260507110131 87 0 0.0 0.0 0.00 0.00 0.00 93 1007.0
20260507105102 87 0 0.0 0.0 0.00 0.00 0.00 94 1007.0
20260507104037 87 0 0.0 0.0 0.00 0.00 0.00 96 1007.0
20260507103009 86 0 0.0 0.0 0.00 0.00 0.00 96 1007.0
20260507101943 86 0 0.0 0.0 0.00 0.00 0.00 95 1007.0
20260507100917 86 0 0.0 0.0 0.00 0.00 0.00 96 1007.0
20260507095850 86 0 0.0 0.0 0.00 0.00 0.00 96 1007.0